Date String (YYYY-MM-DD hh:mm:ss) UTC,Instrument flags,Ambient pressure (hPa),Sample flow (lpm),Bypass flow (lpm),Sample temperature (°C),Ambient temperature (°C),ASC tube jacket temperature (°C),LED temperature (°C),Box temperature (°C),Sample RH (%),Span deviation,Mass concentration (μg/m³),Mass concentration (μg/m³),Mass concentration (μg/m³)
DateTimeUTC,F1_M11,P_M11,Q1_M11,Q2_M11,T1_M11,T2_M11,T3_M11,T4_M11,T5_M11,U1_M11,ZSPAN_M11,X0_M11,X2_M11,X1_M11
2022-11-25 23:00:00,,0829.0,5.01,0.00,28.3,27.1,00.0,37.2,30.2,10.1,0000.0,0004.85,0001.23,0000.76
2022-11-25 23:01:00,,0829.0,4.99,0.00,28.3,27.1,00.0,37.2,30.2,10.1,0000.0,0004.76,0001.23,0000.74
2022-11-25 23:02:00,,0829.0,5.00,0.00,28.3,27.1,00.0,37.2,30.1,10.2,0000.0,0005.51,0001.24,0000.72
2022-11-25 23:03:00,,0829.0,5.02,0.00,28.3,27.1,00.0,37.2,30.2,10.1,0000.0,0005.74,0001.21,0000.71
2022-11-25 23:04:00,,0828.9,5.00,0.00,28.4,27.1,00.0,37.2,30.2,10.0,0000.0,0005.84,0001.16,0000.70
2022-11-25 23:05:00,,0829.0,4.99,0.00,28.3,27.1,00.0,37.2,30.2,09.9,0000.0,0005.93,0001.13,0000.69
2022-11-25 23:06:00,,0828.9,5.01,0.00,28.3,27.0,00.0,37.2,30.1,09.9,0000.0,0005.26,0001.10,0000.68
2022-11-25 23:07:00,,0828.9,5.01,0.00,28.3,27.0,00.0,37.2,30.2,10.1,0000.0,0004.22,0001.06,0000.69
2022-11-25 23:08:00,,0828.9,4.98,0.00,28.3,27.0,00.0,37.2,30.2,10.4,0000.0,0004.11,0001.04,0000.69
2022-11-25 23:09:00,,0828.9,5.01,0.00,28.4,27.0,00.0,37.2,30.2,10.6,0000.0,0004.49,0001.14,0000.71
2022-11-25 23:10:00,,0828.9,5.01,0.00,28.4,27.0,00.0,37.2,30.2,10.7,0000.0,0004.47,0001.14,0000.72
2022-11-25 23:11:00,,0828.8,4.99,0.00,28.4,27.0,00.0,37.2,30.2,10.5,0000.0,0004.61,0001.15,0000.73
2022-11-25 23:12:00,,0828.8,5.00,0.00,28.4,27.0,00.0,37.2,30.2,10.5,0000.0,0004.72,0001.17,0000.74
2022-11-25 23:13:00,,0829.2,5.00,0.00,28.3,27.0,00.0,37.2,30.1,10.4,0000.0,0004.20,0001.16,0000.75
2022-11-25 23:14:00,,0829.3,5.00,0.00,28.3,27.0,00.0,37.2,30.1,10.5,0000.0,0003.66,0001.17,0000.76
2022-11-25 23:15:00,,0829.1,5.00,0.00,28.3,27.0,00.0,37.2,30.2,10.4,0000.0,0003.46,0001.18,0000.78
2022-11-25 23:16:00,,0829.4,5.01,0.00,28.3,26.9,00.0,37.2,30.1,10.4,0000.0,0002.60,0001.19,0000.81
2022-11-25 23:17:00,,0829.1,4.98,0.00,28.3,26.9,00.0,37.2,30.1,10.4,0000.0,0002.65,0001.22,0000.82
2022-11-25 23:18:00,,0829.2,5.00,0.00,28.3,26.8,00.0,37.2,30.0,10.4,0000.0,0002.69,0001.24,0000.83
2022-11-25 23:19:00,,0829.3,5.00,0.00,28.3,26.8,00.0,37.2,30.0,10.4,0000.0,0002.75,0001.27,0000.85
2022-11-25 23:20:00,,0829.3,5.00,0.00,28.3,26.8,00.0,37.2,30.0,10.4,0000.0,0003.30,0001.25,0000.87
2022-11-25 23:21:00,,0829.0,4.99,0.00,28.3,26.8,00.0,37.2,30.0,10.3,0000.0,0003.62,0001.31,0000.89
2022-11-25 23:22:00,,0829.0,5.00,0.00,28.3,26.8,00.0,37.2,30.0,10.4,0000.0,0003.43,0001.31,0000.91
2022-11-25 23:23:00,,0828.8,5.01,0.00,28.3,26.8,00.0,37.2,30.1,10.4,0000.0,0003.39,0001.34,0000.93
2022-11-25 23:24:00,,0828.7,4.98,0.00,28.3,26.9,00.0,37.2,30.1,10.3,0000.0,0003.45,0001.37,0000.97
2022-11-25 23:25:00,,0828.7,5.01,0.00,28.3,26.9,00.0,37.2,30.1,10.3,0000.0,0003.51,0001.42,0001.02
2022-11-25 23:26:00,,0828.7,5.01,0.00,28.3,27.0,00.0,37.2,30.1,10.2,0000.0,0003.56,0001.50,0001.07
2022-11-25 23:27:00,,0828.7,4.98,0.00,28.3,27.0,00.0,37.2,30.1,10.2,0000.0,0003.69,0001.57,0001.13
2022-11-25 23:28:00,,0828.7,5.01,0.00,28.3,27.0,00.0,37.2,30.1,10.1,0000.0,0003.80,0001.65,0001.22
2022-11-25 23:29:00,,0828.7,5.00,0.00,28.3,27.0,00.0,37.2,30.1,10.0,0000.0,0003.91,0001.73,0001.29
2022-11-25 23:30:00,,0828.8,5.01,0.00,28.3,27.0,00.0,37.2,30.1,10.0,0000.0,0004.63,0001.82,0001.36
2022-11-25 23:31:00,,0829.0,4.98,0.00,28.3,27.0,00.0,37.2,30.1,10.0,0000.0,0004.75,0001.92,0001.43
2022-11-25 23:32:00,,0829.2,5.01,0.00,28.3,27.0,00.0,37.2,30.1,10.0,0000.0,0004.66,0001.97,0001.49
2022-11-25 23:33:00,,0829.1,4.99,0.00,28.3,27.0,00.0,37.2,30.1,10.0,0000.0,0004.85,0002.03,0001.54
2022-11-25 23:34:00,,0829.2,5.01,0.00,28.3,27.0,00.0,37.2,30.2,09.9,0000.0,0004.99,0002.11,0001.62
2022-11-25 23:35:00,,0829.0,5.00,0.00,28.3,27.0,00.0,37.2,30.2,09.9,0000.0,0005.03,0002.17,0001.69
2022-11-25 23:36:00,,0828.7,5.00,0.00,28.3,27.0,00.0,37.2,30.2,09.9,0000.0,0006.45,0002.28,0001.74
2022-11-25 23:37:00,,0828.8,5.01,0.00,28.3,27.0,00.0,37.2,30.1,09.9,0000.0,0006.52,0002.28,0001.78
2022-11-25 23:38:00,,0828.6,4.98,0.00,28.3,27.0,00.0,37.2,30.2,09.9,0000.0,0006.71,0002.35,0001.81
2022-11-25 23:39:00,,0828.7,5.00,0.00,28.3,27.0,00.0,37.2,30.2,09.9,0000.0,0006.81,0002.39,0001.83
2022-11-25 23:40:00,,0828.7,5.01,0.00,28.3,27.0,00.0,37.2,30.2,10.0,0000.0,0007.27,0002.40,0001.84
2022-11-25 23:41:00,,0829.0,4.99,0.00,28.3,27.0,00.0,37.2,30.2,10.1,0000.0,0007.89,0002.42,0001.85
2022-11-25 23:42:00,,0828.8,5.01,0.00,28.3,27.0,00.0,37.2,30.2,10.2,0000.0,0007.37,0002.38,0001.83
2022-11-25 23:43:00,,0828.7,5.01,0.00,28.3,27.0,00.0,37.2,30.1,10.1,0000.0,0007.55,0002.32,0001.81
2022-11-25 23:44:00,,0828.7,4.98,0.00,28.3,27.0,00.0,37.2,30.1,10.2,0000.0,0008.54,0002.28,0001.79
2022-11-25 23:45:00,,0828.9,5.00,0.00,28.3,27.0,00.0,37.2,30.2,10.2,0000.0,0009.31,0002.26,0001.77
2022-11-25 23:46:00,,0828.9,5.00,0.00,28.3,27.0,00.0,37.2,30.1,10.2,0000.0,0009.89,0002.26,0001.74
2022-11-25 23:47:00,,0828.8,5.01,0.00,28.3,27.0,00.0,37.2,30.1,10.3,0000.0,0009.27,0002.17,0001.71
2022-11-25 23:48:00,,0828.9,4.99,0.00,28.3,26.9,00.0,37.2,30.1,10.2,0000.0,0009.06,0002.14,0001.68
2022-11-25 23:49:00,,0829.1,5.00,0.00,28.3,26.9,00.0,37.2,30.1,10.1,0000.0,0008.94,0002.05,0001.66
2022-11-25 23:50:00,,0829.0,5.01,0.00,28.3,26.9,00.0,37.2,30.1,10.2,0000.0,0008.85,0001.99,0001.62
2022-11-25 23:51:00,,0829.0,5.01,0.00,28.3,26.9,00.0,37.2,30.1,10.2,0000.0,0008.74,0001.98,0001.59
2022-11-25 23:52:00,,0829.1,4.98,0.00,28.3,26.9,00.0,37.2,30.1,10.2,0000.0,0007.98,0001.95,0001.57
2022-11-25 23:53:00,,0828.9,5.00,0.00,28.3,26.9,00.0,37.2,30.1,10.2,0000.0,0007.84,0001.96,0001.55
2022-11-25 23:54:00,,0829.0,5.01,0.00,28.3,26.9,00.0,37.2,30.1,10.2,0000.0,0007.67,0002.00,0001.55
2022-11-25 23:55:00,,0829.1,5.00,0.00,28.3,26.9,00.0,37.2,30.1,10.3,0000.0,0006.00,0002.00,0001.54
2022-11-25 23:56:00,,0828.9,5.00,0.00,28.3,26.9,00.0,37.2,30.2,10.2,0000.0,0004.81,0001.99,0001.53
2022-11-25 23:57:00,,0829.0,4.98,0.00,28.3,26.9,00.0,37.2,30.1,10.1,0000.0,0003.88,0002.01,0001.53
2022-11-25 23:58:00,,0829.1,5.01,0.00,28.3,26.9,00.0,37.2,30.1,10.0,0000.0,0004.10,0002.10,0001.55
2022-11-25 23:59:00,,0829.0,5.01,0.00,28.3,26.8,00.0,37.2,30.1,10.0,0000.0,0004.29,0002.17,0001.57
